SCP
0 0 0 0 0 0 0 0 0 0 0 0 0 0 0 0 0 0 0 0 0 0 0 0 0 0 0 0 0 0 0 0 0 0 0 0 0 0 0 0 0 0 0 0
0 0 0 0 0 0 0 0 0 0 0 0 0 0 0 0 0 0 0 0 0 0 0 0 0 0 0 0 0 0 0 0 0 0 0 0 0 0 0 0 0 0 0 0
0 0 0 0 0 0 0 0 0 0 0 0 0 0 0 0 0 0 0 0 0 0 0 0 0 0 0 0 0 0 0 0 0 0 0 0 0 0 0 0 0 0 0 0
0 0 0 0 0 0 0 0 0 0 0 0 0 0 0 0 0 0 0 0 0 0 0 0 0 0 0 0 0 0 0 0 0 0 0 0 0 0 0 0 0 0 0 0
0 0 0 0 0 0 0 0 0 0 0 0 0 0 0 0 0 0 0 0 0 0 0 0 0 0 0 0 0 0 0 0 0 0 0 0 0 0 0 0 0 0 0 0
0 0 0 0 0 0 0 0 0 0 0 0 0 0 0 0 0 0 0 0 0 0 0 0 0 0 0 0 0 0 0 0 0 0 0 0 0 0 0 0 0 0 0 0
0 0 0 0 0 0 0 0 0 0 0 0 0 0 0 0 0 0 0 0 0 0 0 0 0 0 0 0 0 0 0 0 0 0 0 0 0 0 0 0 0 0 0 0
0 0 0 0 0 0 0 0 0 0 0 0 0 0 0 0 0 0 0 0 0 0 0 0 0 0 0 0 0 0 0 0 0 0 0 0 0 0 0 0 0 0 0 0
0 0 0 0 0 0 0 0 0 0 0 0 0 0 0 0 0 0 0 0 0 0 0 0 0 0 0 0 0 0 0 0 0 0 0 0 0 0 0 0 0 0 0 0
0 0 0 0 0 0 0 0 0 0 0 0 0 0 0 0 0 0 0 0 0 0 0 0 0 0 0 0 0 0 0 0 0 0 0 0 0 0 0 0 0 0 0 0
0 0 0 0 0 0 0 0 0 0 0 0 0 0 0 0 0 0 0 0 0 0 0 0 0 0 0 0 0 0 0 0 0 0 0 0 0 0 0 0 0 0 0 0
0 0 0 0 0 0 0 0 0 0 0 0 0 0 0 0 0 0 0 0 0 0 0 0 0 0 0 0 0 0 0 0 0 0 0 0 0 0 0 0 0 0 0 0
0 0 0 0 0 0 0 0 0 0 0 0 0 0 0 0 0 0 0 0 0 0 0 0 0 0 0 0 0 0 0 0 0 0 0 0 0 0 0 0 0 0 0 0
0 0 0 0 0 0 0 0 0 0 0 0 0 0 0 0 0 0 0 0 0 0 0 0 0 0 0 0 0 0 0 0 0 0 0 0 0 0 0 0 0 0 0 0
0 0 0 0 0 0 0 0 0 0 0 0 0 0 0 0 0 0 0 0 0 0 0 0 0 0 0 0 0 0 0 0 0 0 0 0 0 0 0 0 0 0 0 0
0 0 0 0 0 0 0 0 0 0 0 0 0 0 0 0 0 0 0 0 0 0 0 0 0 0 0 0 0 0 0 0 0 0 0 0 0 0 0 0 0 0 0 0
0 0 0 0 0 0 0 0 0 0 0 0 0 0 0 0 0 0 0 0 0 0 0 0 0 0 0 0 0 0 0 0 0 0 0 0 0 0 0 0 0 0 0 0
0 0 0 0 0 0 0 0 0 0 0 0 0 0 0 0 0 0 0 0 0 0 0 0 0 0 0 0 0 0 0 0 0 0 0 0 0 0 0 0 0 0 0 0
0 0 0 0 0 0 0 0 0 0 0 0 0 0 0 0 0 0 0 0 0 0 0 0 0 0 0 0 0 0 0 0 0 0 0 0 0 0 0 0 0 0 0 0
0 0 0 0 0 0 0 0 0 0 0 0 0 0 0 0 0 0 0 0 0 0 0 0 0 0 0 0 0 0 0 0 0 0 0 0 0 0 0 0 0 0 0 0
0 0 0 0 0 0 0 0 0 0 0 0 0 0 0 0 0 0 0 0 0 0 0 0 0 0 0 0 0 0 0 0 0 0 0 0 0 0 0 0 0 0 0 0
0 0 0 0 0 0 0 0 0 0 0 0 0 0 0 0 0 0 0 0 0 0 0 0 0 0 0 0 0 0 0 0 0 0 0 0 0 0 0 0 0 0 0 0
0 0 0 0 0 0 0 0 0 0 0 0 0 0 0 0 0 0 0 0 0 0 0 0 0 0 0 0 0 0 0 0 0 0 0 0 0 0 0 0 0 0 0 0
0 0 0 0 0 0 0 0 0 0 0 0 0 0 0 0 0 0 0 0 0 0 0 0 0 0 0 0 0 0 0 0 0 0 0 0 0 0 0 0 0 0 0 0
0 0 0 0 0 0 0 0 0 0 0 0 0 0 0 0 0 0 0 0 0 0 0 0 0 0 0 0 0 0 0 0 0 0 0 0 0 0 0 0 0 0 0 0
0 0 0 0 0 0 0 0 0 0 0 0 0 0 0 0 0 0 0 0 0 0 0 0 0 0 0 0 0 0 0 0 0 0 0 0 0 0 0 0 0 0 0 0
0 0 0 0 0 0 0 0 0 0 0 0 0 0 0 0 0 0 0 0 0 0 0 0 0 0 0 0 0 0 0 0 0 0 0 0 0 0 0 0 0 0 0 0
Wind_Speed
17 17 16 17 19 18 20 22 24 29 29 28 23 16 11 9 8 9 11 13 15 16 16 15 15 13 12 11 9 7 8 10 12 11 11 12 13 13 14 15 16 16 17 18
14 16 18 22 24 26 27 26 28 29 28 19 9 7 9 10 10 10 13 16 17 17 17 16 16 15 14 13 11 9 10 11 10 10 11 12 13 13 14 15 15 16 17 18
16 13 14 19 18 20 17 16 17 18 14 8 10 11 13 13 11 12 15 17 18 18 17 16 16 15 14 14 12 10 10 10 10 10 11 12 12 13 14 14 15 16 17 18
9 7 14 10 3 8 13 15 16 15 11 9 10 12 13 11 11 15 18 19 18 17 17 16 16 14 14 13 12 11 11 11 10 9 11 11 12 13 13 13 14 14 16 18
6 9 15 11 8 5 6 10 6 3 5 10 13 14 12 10 13 17 18 18 17 16 16 16 15 14 14 14 13 12 12 11 10 8 10 11 12 13 12 12 13 13 14 17
6 7 10 7 2 1 4 7 3 3 11 15 18 17 14 16 18 18 18 16 15 14 15 15 14 13 13 14 14 13 12 13 12 11 11 12 12 12 11 11 12 12 14 15
9 10 12 7 0 2 6 5 4 12 16 18 17 16 17 19 18 17 17 16 14 13 13 14 14 13 14 15 14 13 13 13 13 12 12 12 12 11 10 10 11 12 13 13
7 10 12 3 4 5 8 10 14 18 18 18 18 19 19 18 17 16 15 14 13 12 14 14 14 13 15 16 15 14 14 14 14 13 11 9 11 10 9 10 11 11 12 12
9 11 8 3 7 10 13 18 18 17 17 18 19 19 18 15 14 14 13 13 12 13 15 15 14 13 15 16 15 15 15 15 14 13 11 10 10 10 9 8 9 9 9 10
14 16 17 16 17 18 17 17 17 18 18 17 17 15 13 11 12 13 13 13 13 14 15 16 15 15 15 16 14 14 15 14 13 12 11 10 8 8 8 8 9 9 9 9
19 20 19 14 13 14 16 18 19 17 14 12 11 10 10 11 12 12 13 13 13 14 16 17 17 17 16 15 14 14 14 13 12 11 11 10 9 8 9 10 10 10 9 9
19 18 19 19 19 19 19 18 15 12 10 8 7 8 10 11 12 13 14 14 14 16 17 18 17 17 16 15 14 13 12 12 10 9 9 9 9 9 12 15 17 19 18 14
23 21 19 20 18 16 15 12 9 7 7 7 7 8 10 12 12 14 15 16 16 17 17 18 17 17 16 14 13 13 13 12 10 9 9 9 9 9 10 9 13 17 19 20
16 17 20 18 16 12 10 8 6 6 6 7 8 10 11 12 14 15 16 16 17 17 18 17 17 17 16 14 13 13 13 12 11 9 9 9 9 9 8 9 8 7 10 17
13 14 15 14 11 9 7 5 5 6 7 9 9 10 12 14 15 17 17 17 17 17 17 17 18 18 15 14 13 13 12 9 9 9 9 9 9 8 8 9 8 7 6 8
15 13 12 10 9 7 5 5 6 8 10 11 12 14 14 15 16 17 17 16 17 18 17 17 17 17 15 14 13 11 10 14 14 10 9 9 8 8 8 8 7 7 7 6
10 9 7 6 6 5 5 6 8 10 12 13 15 15 16 17 18 18 18 17 16 17 17 17 16 15 14 14 13 10 10 11 15 11 9 9 8 8 8 7 7 7 6 7
5 5 5 5 5 7 8 9 10 12 13 15 16 16 17 18 19 18 18 17 17 17 17 15 14 14 14 14 12 10 9 9 9 9 9 8 8 7 7 7 7 8 6 6
2 3 4 5 6 8 10 12 13 14 14 15 16 17 17 17 17 17 17 16 17 17 14 13 19 18 15 15 15 10 10 11 10 9 9 11 10 8 7 7 7 7 6 5
4 5 7 8 9 9 12 13 15 15 15 15 16 17 18 17 15 16 16 15 13 12 13 16 17 15 14 14 16 10 10 11 11 10 9 8 8 7 7 6 6 6 6 6
8 9 9 11 12 13 13 15 15 16 16 15 16 17 17 16 15 14 14 15 13 13 15 19 14 12 12 14 17 11 10 10 10 9 8 8 7 7 6 6 6 6 6 5
9 11 12 13 15 16 14 14 15 16 16 15 16 15 15 16 15 14 13 12 14 16 14 12 12 15 19 21 12 10 10 10 9 8 8 7 7 6 5 5 5 5 5 5
12 13 14 15 16 16 16 14 14 14 15 15 16 16 16 15 13 13 13 11 12 18 16 13 17 24 27 16 10 10 10 10 9 8 7 7 6 5 5 5 5 5 5 5
14 14 14 13 13 15 16 14 12 12 13 14 14 14 14 13 12 11 12 16 20 22 15 17 24 26 23 11 9 9 9 9 8 7 7 6 5 4 4 4 4 5 5 6
13 12 12 12 13 12 13 12 12 12 13 12 14 14 11 10 12 13 13 15 19 20 14 17 22 22 14 9 9 9 8 8 8 7 6 5 4 3 3 3 4 5 5 5
12 12 11 11 11 11 10 10 10 10 11 12 12 11 11 10 12 12 12 14 17 19 15 12 12 14 10 9 9 9 8 7 7 5 4 4 3 3 2 3 5 5 5 5
11 11 10 10 10 9 9 9 10 11 11 12 13 13 12 12 12 13 14 13 12 12 12 11 10 10 9 9 8 7 6 5 5 4 3 3 2 2 3 4 4 4 5 5
Wind_Direction
265 277 280 273 270 259 250 256 267 276 282 291 308 325 332 333 337 340 345 347 345 340 335 332 330 327 326 319 310 290 268 259 258 258 255 253 249 244 239 235 232 229 227 225
267 269 272 273 266 263 262 262 263 271 278 295 329 344 336 333 333 331 335 337 335 331 327 325 323 321 318 315 313 299 279 271 270 265 259 254 251 246 241 236 233 230 228 226
280 294 290 270 259 255 251 251 258 268 289 345 342 339 331 325 323 326 327 328 325 323 321 318 317 316 312 311 309 300 287 280 275 268 264 258 253 248 243 239 235 231 229 227
287 288 251 261 298 263 265 266 267 272 296 327 331 322 310 309 318 323 324 321 319 317 315 312 311 311 309 307 304 299 293 288 281 272 269 268 261 254 249 243 237 232 230 229
254 264 274 279 277 255 257 277 289 302 344 338 330 313 307 327 325 317 315 313 311 312 309 307 308 312 310 305 304 301 297 296 292 276 271 270 265 260 253 246 242 237 234 231
224 247 266 286 94 358 273 274 108 0 333 330 328 317 318 328 319 313 312 311 312 312 308 306 310 314 308 305 305 305 306 304 301 293 282 276 272 268 259 249 245 240 236 232
230 246 267 283 10 224 249 325 0 320 320 319 314 307 310 314 311 310 311 312 314 312 308 308 313 312 305 304 305 309 308 304 300 295 289 285 281 272 263 252 247 242 240 235
222 230 251 198 174 229 301 324 312 312 314 312 309 308 309 310 310 311 312 313 316 313 309 310 313 311 306 305 310 311 307 302 300 299 296 287 281 275 264 254 248 245 242 240
224 240 272 225 255 290 306 304 308 310 310 308 305 305 307 308 310 312 311 311 313 311 307 307 310 309 304 305 310 308 304 302 302 301 297 289 281 275 266 252 246 244 240 239
262 261 271 278 284 291 299 305 308 306 305 302 300 303 307 309 309 310 311 313 314 311 307 307 311 309 305 306 306 303 301 302 302 301 298 294 280 268 260 251 245 242 240 238
261 274 283 279 285 298 307 306 304 303 302 301 303 305 310 309 308 310 310 310 310 306 304 305 308 306 306 307 307 303 301 301 300 297 296 294 283 268 261 252 246 244 244 240
266 280 289 296 305 308 304 302 303 302 302 305 305 305 307 304 305 306 306 307 306 304 304 306 307 305 306 307 306 303 300 299 299 299 297 291 289 283 259 254 259 252 247 244
272 287 292 298 301 301 297 296 297 294 295 302 306 305 304 302 304 304 304 305 305 305 304 304 304 303 305 308 305 300 296 296 296 294 293 293 290 288 290 275 255 253 250 245
282 290 290 294 298 301 295 293 290 285 291 295 299 302 302 301 302 303 303 306 306 304 302 303 303 302 307 310 305 297 295 293 291 290 291 290 287 284 282 284 282 270 252 246
285 287 288 294 295 293 288 286 288 297 305 305 304 302 301 301 301 301 303 306 305 302 302 304 304 304 309 309 303 297 295 291 290 289 287 285 283 280 275 270 268 269 264 252
297 292 286 281 284 289 289 288 293 301 304 304 304 304 303 301 299 299 301 304 306 305 305 305 302 303 307 305 300 295 290 287 290 288 286 284 279 274 270 265 262 258 254 248
290 291 294 291 294 298 296 295 294 296 299 299 301 303 303 302 301 301 305 309 305 300 300 299 298 301 301 299 296 292 290 288 289 287 281 280 277 273 267 262 258 253 249 240
277 284 295 298 301 303 303 301 299 297 296 297 300 301 300 300 301 304 305 305 303 300 298 299 302 304 300 298 295 291 288 285 284 283 282 280 278 269 261 256 252 249 246 237
344 322 313 305 300 298 297 297 298 297 296 296 297 298 298 297 296 297 300 301 300 299 301 304 306 305 300 297 296 290 286 286 287 285 283 284 282 268 257 251 245 239 232 224
287 288 291 294 294 290 291 294 297 297 298 299 297 296 296 296 297 298 298 294 288 289 296 302 303 300 299 299 299 292 288 288 289 288 285 282 279 271 259 248 237 230 222 217
271 277 282 288 293 294 293 295 297 298 299 298 295 293 294 295 295 295 294 295 296 299 303 305 302 300 301 302 302 295 294 293 292 291 290 286 279 269 258 242 227 220 214 208
273 280 285 289 292 294 296 297 297 297 298 297 294 292 293 294 295 293 286 287 296 302 305 302 301 300 304 306 300 297 295 293 290 289 286 282 275 266 252 234 220 210 204 198
278 282 286 288 291 295 297 294 292 293 293 294 295 295 296 297 297 296 296 297 301 304 305 298 300 304 308 307 298 295 295 294 293 290 286 281 274 262 247 227 213 201 193 187
280 283 283 286 290 291 290 289 288 289 289 291 288 287 289 293 293 290 292 298 302 303 301 298 302 306 310 304 297 296 296 296 294 291 288 283 272 258 240 219 202 189 182 178
277 279 280 283 285 284 286 289 290 289 290 291 293 293 290 288 291 297 298 299 301 303 300 300 303 306 306 297 295 296 296 294 294 293 286 280 270 254 228 204 188 178 173 172
277 281 283 280 280 283 286 287 288 292 296 297 298 299 300 299 297 298 298 299 300 300 300 299 301 303 299 296 296 296 295 297 298 292 286 280 262 242 210 187 175 170 165 162
277 279 279 278 277 275 277 281 286 291 295 296 298 300 301 302 301 302 303 301 301 300 300 300 300 299 298 296 297 296 294 294 293 289 283 270 248 216 182 170 163 155 152 153